Simultaneous Nadir Overpasses (SNOs) Predictions

Prediction of SNOs between NOAA-19 and TERRA Satellite Orbit:

Table of predicted SNOs for the next 14.0 days since TLE Epoch: 9/17/2022
Index Date (NOAA-19) Time (NOAA-19) Lat,Lon (NOAA-19) SZA (NOAA-19 ) Date (TERRA) Time (TERRA) Lat,Lon (TERRA) SZA (TERRA ) Distance(km) Time Diff (sec)
1 09/19/2022 00:58:13 -80.86, 21.25 98.85 09/19/2022 00:59:10 -80.88, 21.28 98.81 1.58 57
2 09/19/2022 01:49:11 80.86,-171.33 81.19 09/19/2022 01:48:37 80.85,-171.41 81.16 1.80 34
3 09/21/2022 07:22:04 -80.86, -74.74 97.95 09/21/2022 07:22:16 -80.85, -74.85 97.97 2.65 12
4 09/23/2022 12:54:55 80.87, 21.89 82.92 09/23/2022 12:55:53 80.87, 22.00 82.96 2.05 58
5 09/23/2022 13:45:54 -80.86,-170.40 97.03 09/23/2022 13:45:20 -80.87,-170.37 97.03 1.21 34
6 09/25/2022 19:18:46 80.87, -73.97 83.83 09/25/2022 19:18:58 80.86, -73.94 83.83 1.10 12
7 09/28/2022 00:51:37 -80.87, 22.65 95.30 09/28/2022 00:52:36 -80.87, 22.81 95.26 2.85 59
8 09/28/2022 01:42:36 80.86,-169.50 84.77 09/28/2022 01:42:02 80.87,-169.60 84.75 1.99 34



Historial Predications of SNOs between NOAA-19 and TERRA
